KE0OLW-13 Weather Reports


Display with metric or nautical units.
time (UTC)temp
F
wind
direction
speed
MPH
gust
MPH
rain 1hr
in
rain 24hr
in
rain mn
in
humidity
%
barometer
mb
20260505053536 47 0.0 0.0 0.00 0.00 0.00 93 1011.5
20260505052516 47 0.0 0.0 0.00 0.00 0.00 93 1011.5
20260505051537 47 0.0 0.0 0.00 0.00 0.00 93 1011.4
20260505050517 47 0.0 0.0 0.00 0.00 0.00 93 1011.4
20260505041516 48 0.0 0.0 0.00 0.00 0.00 91 1011.5
20260505040516 49 0.0 0.0 0.00 0.00 0.00 92 1011.4
20260505035538 49 0.0 0.0 0.00 0.00 0.00 91 1011.3
20260505034516 49 0.0 0.0 0.00 0.00 0.00 91 1011.1
20260505033517 49 0.0 1.0 0.00 0.00 0.00 90 1011.0
20260505032536 50 0.0 0.0 0.00 0.00 0.00 90 1010.8
20260505031516 50 0.0 0.0 0.00 0.00 0.00 89 1010.6
20260505030515 50 0.0 0.0 0.00 0.00 0.00 88 1009.6
20260505025516 50 0.0 1.0 0.00 0.00 0.00 85 1009.3
20260505024517 52 0.0 1.0 0.00 0.00 0.00 82 1009.5
20260505023516 53 0.0 1.0 0.00 0.00 0.00 74 1009.3
20260505022516 53 0.0 2.0 0.00 0.00 0.00 69 1008.9
20260505021516 53 0.0 2.0 0.00 0.00 0.00 69 1008.8
20260505020517 53 0.0 0.0 0.00 0.00 0.00 70 1007.8
20260505015516 54 0.0 0.0 0.00 0.00 0.00 69 1008.2
20260505014516 54 0.0 3.0 0.00 0.00 0.00 67 1008.0
20260505013517 55 0.0 3.0 0.00 0.00 0.00 66 1007.0
20260505012518 55 23 1.0 5.0 0.00 0.00 0.00 65 1007.4
20260505011519 55 338 1.0 4.0 0.00 0.00 0.00 65 1007.4
20260505010525 56 338 2.0 6.0 0.00 0.00 0.00 62 1007.0
20260505005530 57 338 1.0 6.0 0.00 0.00 0.00 62 1007.4
20260505004520 58 338 1.0 8.0 0.00 0.00 0.00 58 1007.2
20260505003518 59 0.0 3.0 0.00 0.00 0.00 56 1007.0
20260505002518 58 338 1.0 3.0 0.00 0.00 0.00 60 1006.8
20260505001521 57 0.0 2.0 0.00 0.00 0.00 70 1006.5
20260505000518 57 0.0 0.0 0.00 0.00 0.00 75 1006.4
20260504235520 56 0.0 0.0 0.00 0.00 0.00 74 1006.3
20260504234518 56 0.0 0.0 0.00 0.00 0.00 78 1006.2
20260504233538 55 0.0 2.0 0.00 0.00 0.00 82 1006.3
20260504232523 55 0.0 1.0 0.00 0.00 0.00 82 1006.1
20260504231523 56 0.0 1.0 0.00 0.00 0.00 75 1006.3
20260504230518 60 0.0 3.0 0.00 0.00 0.00 67 1007.2
20260504225539 61 270 2.0 6.0 0.00 0.00 0.00 48 1007.1
20260504224523 61 0.0 0.0 0.00 0.00 0.00 45 1006.7
20260504223517 62 0.0 1.0 0.00 0.00 0.00 44 1006.4
20260504222519 62 0.0 3.0 0.00 0.00 0.00 44 1005.9
20260504221518 62 0.0 0.0 0.00 0.00 0.00 52 1005.8
20260504220517 61 0.0 1.0 0.00 0.00 0.00 51 1005.3
20260504215517 61 0.0 4.0 0.00 0.00 0.00 55 1005.1
20260504214517 60 0.0 2.0 0.00 0.00 0.00 56 1005.4
20260504213525 58 338 1.0 4.0 0.00 0.00 0.00 55 1005.5
20260504212517 57 0 2.0 7.0 0.00 0.00 0.00 56 1005.8
20260504211537 57 0 1.0 6.0 0.00 0.00 0.00 60 1006.8
20260504210519 56 338 1.0 7.0 0.00 0.00 0.00 68 1006.7
20260504205517 57 0.0 2.0 0.00 0.00 0.00 72 1006.8
20260504204537 59 0.0 1.0 0.00 0.00 0.00 66 1006.9
20260504203517 65 338 3.0 10.0 0.00 0.00 0.00 36 1007.1
20260504202518 66 338 5.0 10.0 0.00 0.00 0.00 30 1006.4
20260504201518 69 23 5.0 13.0 0.00 0.00 0.00 26 1006.6
20260504200518 72 338 3.0 6.0 0.00 0.00 0.00 23 1007.5
20260504195517 72 0 1.0 4.0 0.00 0.00 0.00 24 1007.5
20260504194517 73 315 1.0 5.0 0.00 0.00 0.00 23 1007.4
20260504193517 74 248 2.0 8.0 0.00 0.00 0.00 22 1008.1
20260504192519 73 338 2.0 6.0 0.00 0.00 0.00 23 1008.2
20260504191517 72 248 2.0 10.0 0.00 0.00 0.00 23 1007.8
20260504190523 72 293 2.0 8.0 0.00 0.00 0.00 22 1008.2
20260504185517 72 270 1.0 7.0 0.00 0.00 0.00 24 1008.3
20260504184538 73 315 2.0 6.0 0.00 0.00 0.00 23 1008.3
20260504183518 72 270 2.0 6.0 0.00 0.00 0.00 23 1008.5
20260504182517 71 270 1.0 5.0 0.00 0.00 0.00 25 1008.6
20260504181518 70 270 2.0 7.0 0.00 0.00 0.00 25 1008.6
20260504180518 70 270 3.0 12.0 0.00 0.00 0.00 26 1009.2
20260504175518 69 293 1.0 5.0 0.00 0.00 0.00 26 1009.1
20260504174537 69 315 1.0 6.0 0.00 0.00 0.00 27 1009.4
20260504173536 68 315 1.0 6.0 0.00 0.00 0.00 28 1009.6
20260504172517 67 248 1.0 7.0 0.00 0.00 0.00 28 1009.6
20260504171517 67 0.0 2.0 0.00 0.00 0.00 29 1009.7
20260504170516 66 270 1.0 4.0 0.00 0.00 0.00 29 1009.4
20260504150517 62 0.0 2.0 0.00 0.00 0.00 32 1009.8
20260504140517 53 0.0 0.0 0.00 0.00 0.00 45 1009.2
20260504130516 45 0.0 0.0 0.00 0.00 0.00 58 1008.3
20260504110536 43 0.0 0.0 0.00 0.00 0.00 57 1008.4
20260504100516 43 0.0 0.0 0.00 0.00 0.00 58 1008.6
20260504081516 48 0.0 0.0 0.00 0.00 0.00 50 1010.8
20260504080515 49 0.0 0.0 0.00 0.00 0.00 48 1010.9